"Pseudo-MPEC" for P11DBXW

Created 2023 Mar 20 10:22:14 UT using Find_Orb

Click here for an explanation of pseudo-MPECs

 
 Astrometry: 
     P11DBXW* C2023 03 18VHu^;N%[1;V?.+HRRx$,3u3`g45h5[EJ1^e_c!KXWDflrnkPTXKBF51
     P11DBXW  C2023 03 18rm0.[ydqE5(]TA/lX@6D])QNm``r\3elAGk+jt'OA'84_Y$]aTGiF51
     P11DBXW  C2023 03 18G-*si=_58`[wXKrXS!y49gtLF1hae6QfC[`gRyj9]gAstrometryF51
     P11DBXW 1C2023 03 18.79200 12 31 14.27 +41 20 42.8    ~3IJb 21.2 VXNEOCP033
     P11DBXW 1C2023 03 18.79292 12 31 14.93 +41 20 47.7    ~3IJb 21.0 VXNEOCP033
     P11DBXW 1C2023 03 18.79384 12 31 15.63 +41 20 52.6    ~3IJb 21.0 VXNEOCP033
     P11DBXW KC2023 03 18qc9)redacted;pn\*b$X4JD#1/mPjQ6W)i4M(qoS4.\*WrisvG-E106
     P11DBXW KC2023 03 18dfUW(+HZuY=dmkF?`ySH58%a'R^(`8N$$]6-h8A=K^[?O'85Zk^I106
     P11DBXW KC2023 03 18]=ddpHG0;u4?X$Lm=hRRa[3yclickqmD/p(LZFB]m,xBA=TyDTkK106
     P11DBXW KC2023 03 18^wWyYjx*]v9-X?B%b%LnWoiNIirX_]wo;vN+N2C$K*]kL-QBU.7y106
     P11DBXW KC2023 03 18];B/M['dXw%.%e68b:=lQb?GoJj%3[XJP3#[;Bm8here!U=fE/(9L01
     P11DBXW KC2023 03 18MOEinl_r6_rv/HPCe^H2PIgGjfWr%^GJMforo=fBS^'%ZkNd4.OLL01
     P11DBXW KC2023 03 18VaVY(#In4vtrwDG;@iI%JN_;VJ)dSUt;1.Ci1l#-fP_d*,ZJO)OyL01
     P11DBXW 1C2023 03 19.14568 12 35 24.34 +41 50 10.8    ~3J8q 20.4 VXNEOCP033
     P11DBXW 1C2023 03 19.14660 12 35 25.03 +41 50 15.3    ~3J8q 20.2 VXNEOCP033
     P11DBXW 1C2023 03 19.14752 12 35 25.68 +41 50 19.5    ~3J8q 20.5 VXNEOCP033
     P11DBXW 1C2023 03 19.87302 12 45 16.50 +42 50 39.5    ~3JLM 20.4 VXNEOCP033
     P11DBXW 1C2023 03 19.87383 12 45 17.17 +42 50 43.8    ~3JLM 20.5 VXNEOCP033
     P11DBXW 1C2023 03 19.87463 12 45 17.81 +42 50 47.9    ~3JLM 20.6 VXNEOCP033
     P11DBXW 1C2023 03 20.02917 12 47 22.44 +43 03 58.9    ~3K77 20.3 VXNEOCP033
     P11DBXW 1C2023 03 20.02997 12 47 23.12 +43 04 02.9    ~3K77 20.2 VXNEOCP033
     P11DBXW 1C2023 03 20.03078 12 47 23.75 +43 04 06.8    ~3K77 20.4 VXNEOCP033
     P11DBXW KC2023 03 201i;BmD`FT[a?C_.TQfqp!5-oJ\R5CP`6OF\)[xH$71YBwu9mv(G]204
     P11DBXW KC2023 03 20xqs*K.Hn9.*h/AKjsMo0^(R5WE\SM)j%Ucexplanation0K2Odu3204
     P11DBXW KC2023 03 20R*.#t'+C7iKCY(B;5py%OTB94nL=2GQe+_B%gMIXqNVPWxElHDLx204

Station data:
(033) Karl Schwarzschild Observatory, Tautenburg  (N50.980137 E11.711240)
   Germany.  Observers S. Melnikov, C. Hoegner, B. Stecklum. Measurer B.
   Stecklum. 1.34-m f/3 Schmidt + CCD.
(106) Črni Vrh  (N45.945905 E14.071100)  Slovenia.  Observer J. Skvarč. 0.6-m
   f/3.3 Deltagraph + CCD.
(204) Schiaparelli Observatory  (N45.867930 E8.770800)  Italy.  Observer L.
   Buzzi. 0.60-m f/4.64 Newtonian + CCD0.84-m f/3.5 reflector + CCD.
(F51) Pan-STARRS 1, Haleakala  (N20.707234 W156.255910)  US/Hawaii.
   Observers J. Bulger, T. Lowe, A. Schultz, M. Willman. Measurers K.
   Chambers, S. Chastel, T. de Boer, L. Denneau, J. Fairlamb, H. Flewelling,
   M. Huber, C.-C. Lin, E. Magnier, Y. Ramanjooloo, R. Wainscoat, R. Weryk.
   1.8-m Ritchey-Chrétien + CCD.
(L01) Višnjan Observatory, Tičan  (N45.290897 E13.749300)  Croatia.
   Observers K. Korlević, D. Pujagic, V. Dobos. Measurers D. Pujagic, K.
   Korlević. 1.0-m f/2.9 reflector + CCD.

Orbital elements:  P11DBXW
   Perihelion 2023 Apr 20.35081 +/- 0.00867 TT =  8:25:09 (JD 2460054.85081)
Epoch 2023 Mar 20.0 TT = JDT 2460023.5   Earth MOID: 0.0265   Ma: 0.0173
M 347.20877718 +/- 0.034            (J2000 ecliptic)             AutoNEOCP
n   0.40800300 +/- 0.00103          Peri.  116.70153 +/- 0.13
a   1.80036463 +/- 0.00304          Node    98.46550 +/- 0.12
e   0.4558344 +/- 0.000934          Incl.    2.56357 +/- 0.0051
P   2.42/882.33d           H 24.64  G  0.15   U  8.1
q 0.97969635 +/- 5.92e-5    Q 2.62103290 +/- 0.00611
From 25 observations 2023 Mar. 18-20 (40.4 hr); mean residual 0".41
Residuals in arcseconds: 
230318 F51  .01+  .04-    230318 106  .88+  1.1+    230319 033  .08-  .18-    
230318 F51  .14+  .02+    230318 L01  .35-  .18-    230320 033  .07-  .10-    
230318 F51  .16-  .15-    230318 L01  .42-  .41-    230320 033  .27+  .06-    
230318 033  .52-  .10-    230318 L01  .42-  .33-    230320 033  .02-  .18-    
230318 033  .48-  .02-    230319 033  .44-  .48-    230320 204  .06-  .11+    
230318 033  .02+  .07+    230319 033  .25-  .31-    230320 204  .00   .22+    
230318 106  1.2+  .52+    230319 033  .51-  .44-    230320 204  .18+  .15-    
230318 106  .35+  .19+    230319 033  .17-  .12-    
230318 106  .11+  1.3+    230319 033  .00   .08-    

Ephemerides (geocentric):
Date (UTC) HH   RA             Dec           delta  r     elong  mag " sig PA
---- --------  ------------   ------------  ------ ------ -----  --- --------
2023 03 20 10  12 53 04.815   +43 36 33.24  .06581 1.0433 134.9 20.5 .196  39
2023 03 20 11  12 53 42.626   +43 40 01.06  .06568 1.0431 134.8 20.5 .210  40
2023 03 20 12  12 54 20.654   +43 43 28.77  .06555 1.0429 134.7 20.5 .225  41
2023 03 20 13  12 54 58.903   +43 46 56.38  .06542 1.0428 134.6 20.5 .240  42
2023 03 20 14  12 55 37.372   +43 50 23.86  .06529 1.0426 134.5 20.5 .256  43
2023 03 20 15  12 56 16.064   +43 53 51.20  .06516 1.0425 134.4 20.5 .273  43
2023 03 20 16  12 56 54.979   +43 57 18.40  .06503 1.0423 134.3 20.5 .290  44
2023 03 20 17  12 57 34.119   +44 00 45.45  .06490 1.0421 134.2 20.5 .308  45
2023 03 20 18  12 58 13.485   +44 04 12.33  .06477 1.0420 134.1 20.5 .326  46
2023 03 20 19  12 58 53.078   +44 07 39.03  .06464 1.0418 134.0 20.5 .345  46
2023 03 20 20  12 59 32.900   +44 11 05.55  .06452 1.0417 133.9 20.5 .364  47
2023 03 20 21  13 00 12.952   +44 14 31.86  .06439 1.0415 133.8 20.5 .384  48
2023 03 20 22  13 00 53.234   +44 17 57.96  .06426 1.0413 133.7 20.5 .405  48
2023 03 20 23  13 01 33.750   +44 21 23.84  .06414 1.0412 133.6 20.5 .426  49
2023 03 21 00  13 02 14.498   +44 24 49.48  .06401 1.0410 133.5 20.5 .448  50
2023 03 21 01  13 02 55.482   +44 28 14.88  .06389 1.0409 133.4 20.5 .471  50
2023 03 21 02  13 03 36.701   +44 31 40.01  .06376 1.0407 133.3 20.5 .494  51
2023 03 21 03  13 04 18.159   +44 35 04.88  .06363 1.0405 133.2 20.5 .517  51
2023 03 21 04  13 04 59.854   +44 38 29.46  .06351 1.0404 133.1 20.5 .542  52
2023 03 21 05  13 05 41.790   +44 41 53.74  .06339 1.0402 133.0 20.5 .567  52
2023 03 21 06  13 06 23.966   +44 45 17.71  .06326 1.0401 132.9 20.5 .592  53
2023 03 21 07  13 07 06.385   +44 48 41.35  .06314 1.0399 132.8 20.5 .618  53
2023 03 21 08  13 07 49.048   +44 52 04.66  .06302 1.0397 132.7 20.5 .645  53
2023 03 21 09  13 08 31.955   +44 55 27.62  .06289 1.0396 132.6 20.5 .673  54
2023 03 21 10  13 09 15.108   +44 58 50.21  .06277 1.0394 132.5 20.5 .701  54
2023 03 21 11  13 09 58.509   +45 02 12.42  .06265 1.0393 132.3 20.5 .730  55
2023 03 21 12  13 10 42.158   +45 05 34.24  .06253 1.0391 132.2 20.5 .759  55
2023 03 21 13  13 11 26.057   +45 08 55.66  .06241 1.0390 132.1 20.5 .790  55
2023 03 21 14  13 12 10.206   +45 12 16.65  .06229 1.0388 132.0 20.5 .820  56
2023 03 21 15  13 12 54.608   +45 15 37.21  .06217 1.0386 131.9 20.5 .852  56
2023 03 21 16  13 13 39.262   +45 18 57.31  .06205 1.0385 131.8 20.5 .884  57
2023 03 21 17  13 14 24.171   +45 22 16.95  .06193 1.0383 131.7 20.5 .917  57
2023 03 21 18  13 15 09.336   +45 25 36.11  .06181 1.0382 131.6 20.5 .951  57
2023 03 21 19  13 15 54.757   +45 28 54.77  .06169 1.0380 131.5 20.5 .986  58
2023 03 21 20  13 16 40.436   +45 32 12.92  .06157 1.0379 131.4 20.5 1.02  58
2023 03 21 21  13 17 26.374   +45 35 30.54  .06145 1.0377 131.2 20.5 1.06  58
2023 03 21 22  13 18 12.572   +45 38 47.62  .06133 1.0375 131.1 20.5 1.09  59
2023 03 21 23  13 18 59.032   +45 42 04.13  .06122 1.0374 131.0 20.5 1.13  59
2023 03 22 00  13 19 45.753   +45 45 20.07  .06110 1.0372 130.9 20.5 1.17  59
2023 03 22 01  13 20 32.738   +45 48 35.42  .06098 1.0371 130.8 20.5 1.21  60
2023 03 22 02  13 21 19.988   +45 51 50.15  .06087 1.0369 130.7 20.5 1.25  60
2023 03 22 03  13 22 07.503   +45 55 04.26  .06075 1.0368 130.6 20.5 1.29  60
2023 03 22 04  13 22 55.285   +45 58 17.72  .06064 1.0366 130.5 20.5 1.33  60
2023 03 22 05  13 23 43.334   +46 01 30.52  .06052 1.0365 130.3 20.5 1.37  61
2023 03 22 06  13 24 31.652   +46 04 42.65  .06041 1.0363 130.2 20.5 1.41  61
2023 03 22 07  13 25 20.240   +46 07 54.07  .06029 1.0361 130.1 20.5 1.46  61
2023 03 22 08  13 26 09.098   +46 11 04.78  .06018 1.0360 130.0 20.4 1.50  62
2023 03 22 09  13 26 58.228   +46 14 14.75  .06007 1.0358 129.9 20.4 1.55  62